Regional Weather Roundup
Issued by NWS

Home | Current Version | Previous Version | Graphics & Text | Print | Product List | Glossary On
Versions: 1 2 3 4 5 6 7 8 9 10 11 12 13 14 15 16 17 18 19 20 21 22 23 24 25 26 27 28 29 30 31 32 33 34 35 36 37 38 39 40 41 42 43 44 45 46 47 48 49 50
000
ASUS43 KOAX 011410
RWRNE

WEATHER ROUNDUP FOR NEBRASKA
NATIONAL WEATHER SERVICE OMAHA NE
800 AM CST WED MAR 01 2017

NOTES: SATELLITE DATA IS BEING USED TO AUGMENT CLOUD COVER ABOVE
       12000 FEET.
       "FAIR" INDICATES FEW OR NO CLOUDS BELOW 12,000 FEET WITH NO
       SIGNIFICANT WEATHER AND/OR OBSTRUCTIONS TO VISIBILITY.

  * THESE STATIONS DO NOT REPORT WEATHER SUCH AS RAIN...SNOW OR FOG.

NEZ001>004-019>022-054>056-011500-
NEBRASKA PANHANDLE

CITY           SKY/WX    TMP DP  RH WIND       PRES   REMARKS
SCOTTSBLUFF    CLEAR     19   9  65 W10       30.14R WCI   7
ALLIANCE       MOCLDY    19  10  68 W20       30.08R WCI   3
CHADRON        CLOUDY    23  14  68 W12       30.11R WCI  12
KIMBALL        CLEAR     24  13  63 NW15G21   30.11R WCI  11
SIDNEY         CLEAR     24  11  57 NW21      30.11R WCI   9
$$

NEZ057>060-069>072-079>082-011500-
SOUTHWEST NEBRASKA

CITY           SKY/WX    TMP DP  RH WIND       PRES   REMARKS
NORTH PLATTE   CLEAR     27  15  61 W17       30.09R WCI  14
IMPERIAL       CLEAR     28  12  51 NW16      30.12R WCI  16
LEXINGTON      CLEAR     26  18  72 NW13      30.06R WCI  15
MCCOOK         CLEAR     30  16  56 NW18G26   30.09R WCI  18
OGALLALA       CLEAR     29  15  55 NW21G26   30.11R WCI  16
$$

NEZ005>010-023>029-035>040-094-011500-
NORTH CENTRAL NEBRASKA

CITY           SKY/WX    TMP DP  RH WIND       PRES   REMARKS
VALENTINE      PTCLDY    23  16  74 W13       30.03R WCI  11
AINSWORTH      CLEAR     23  20  87 NW13G20   30.02R WCI  12
BROKEN BOW     CLEAR     25  17  72 NW22      30.02R WCI  10
O`NEILL        MOCLDY    26  23  89 NW9       30.01R WCI  16
ORD            PTCLDY    24  20  84 NW10      30.02R WCI  14
THEDFORD       CLEAR     24  16  73 W12       30.05R WCI  13
$$

NEZ041-046>049-061>064-073>077-083>087-011500-
SOUTH CENTRAL NEBRASKA

CITY           SKY/WX    TMP DP  RH WIND       PRES   REMARKS
GRAND ISLAND   CLEAR     25  22  88 W13       30.04R WCI  14
AURORA         CLEAR     27  24  89 NW13      30.03R WCI  16
HASTINGS       CLEAR     26  20  77 NW13      30.04R WCI  15
HEBRON         CLEAR     28  24  82 NW9       30.04R WCI  20
HOLDREGE       CLEAR     27  17  65 NW9       30.05R WCI  18
KEARNEY *      CLEAR     25  16  68 NW12      30.05R WCI  14
YORK           CLEAR     28  25  86 NW15      30.02R WCI  17
$$

NEZ011>018-030>034-042>045-011500-
NORTHEAST NEBRASKA

CITY           SKY/WX    TMP DP  RH WIND       PRES   REMARKS
NORFOLK        PTCLDY    29  23  78 NW16G26   29.97R WCI  17
ALBION         CLOUDY    29  24  79 NW18G25   30.01R WCI  17
BLAIR          CLOUDY    32  28  83 NW20G25   29.95R WCI  20
FREMONT        PTSUNNY   32  27  81 NW16      29.99R WCI  21
TEKAMAH        CLOUDY    32  26  78 NW21G26   29.96R WCI  20
WAYNE          CLOUDY    29  25  84 NW16G22   29.98R WCI  17
$$

NEZ050>053-065>068-078-088>093-011500-
SOUTHEAST NEBRASKA

CITY           SKY/WX    TMP DP  RH WIND       PRES   REMARKS
LINCOLN        CLOUDY    32  25  75 NW12      30.02R WCI  23
OMAHA EPPLEY   CLOUDY    34  26  72 NW20      29.96R WCI  23
BEATRICE       SUNNY     32  26  78 NW14      30.01R WCI  22
FALLS CITY     CLOUDY    35  27  72 NW18G28   29.98R WCI  24
NEBRASKA CITY  CLOUDY    33  26  76 NW17      29.96R WCI  22
PLATTSMOUTH    CLOUDY    33  27  77 NW21      29.95R WCI  21
$$

NEZ044-045-051>053-067-011500-
OMAHA AREA

CITY           SKY/WX    TMP DP  RH WIND       PRES   REMARKS
OMAHA EPPLEY   CLOUDY    34  26  72 NW20      29.96R WCI  23
BLAIR          CLOUDY    32  28  83 NW20G25   29.95R WCI  20
FREMONT        PTSUNNY   32  27  81 NW16      29.99R WCI  21
MILLARD        CLOUDY    35  29  77 NW17G23   29.97R WCI  25
OFFUTT AFB     CLOUDY    34  27  77 NW15      29.96R WCI  24
PLATTSMOUTH    CLOUDY    33  27  77 NW21      29.95R WCI  21
WAHOO          FAIR      32  26  77 NW17      29.98R WCI  21
$$




USA.gov is the U.S. government's official web portal to all federal, state and local government web resources and services.